Regional Weather Roundup
Issued by NWS

Home | Current Version | Previous Version | Text Only | Print | Product List | Glossary On
Versions: 1 2 3 4 5 6 7 8 9 10 11 12 13 14 15 16 17 18 19 20 21 22 23 24 25 26 27 28 29 30 31 32 33 34 35 36 37 38 39 40 41 42 43 44 45 46 47 48 49 50
000
ASUS46 KLOX 250702
RWRCA

SOUTHERN CALIFORNIA WEATHER ROUNDUP
NATIONAL WEATHER SERVICE OXNARD CALIFORNIA
1200 AM PDT SAT APR 25 2015

NOTE: "FAIR" INDICATES FEW OR NO CLOUDS BELOW 12,000 FEET WITH NO
SIGNIFICANT WEATHER AND/OR OBSTRUCTIONS TO VISIBILITY.

  -  STATIONS PRECEEDED BY AN ASTERISK (*) ARE NOT NWS OR FAA
     STATIONS AND ARE NOT SUBJECT TO NWS AND FAA QUALITY CONTROL.

CAZ041-042-087-250800-
LA AND ORANGE COUNTY COASTAL AREAS


CITY           SKY/WX    TMP DP  RH WIND       PRES   REMARKS
L.A. DOWNTOWN  CLEAR     58  53  84 CALM      30.00F
L.A. AIRPORT   MOCLDY    58  51  78 W9        30.00F
LONG BEACH     PTCLDY    59  52  77 NW5       30.00F

CITY           SKY/WX    TMP DP  RH WIND       PRES   REMARKS
AVALON           N/A     54 N/A N/A MISG        N/A
FULLERTON      CLOUDY    61  51  70 CALM      29.99F
*GETTY CENTER    N/A    N/A N/A N/A W3          N/A
HAWTHORNE      CLEAR     60  51  72 W3        30.00F
*LOS ALAMITOS  MOCLDY    58  53  83 CALM      30.00R
*REDONDO BEACH   N/A     57  50  79 CALM      30.01S
SANTA ANA      MOCLDY    60  50  69 CALM      30.00F
STA MONICA APT PTCLDY    59  51  75 CALM      30.00F
*UCLA            N/A     55  50  82 CALM      29.97F

$$

CAZ547-548-048-250800-
LA COUNTY VALLEYS AND INLAND EMPIRE


CITY           SKY/WX    TMP DP  RH WIND       PRES   REMARKS
BURBANK        CLEAR     57  49  74 CALM      29.99F
VAN NUYS       MOCLDY    58  49  72 CALM      29.99F

CITY           SKY/WX    TMP DP  RH WIND       PRES   REMARKS
CORONA AIRPORT PTSUNNY   56  52  86 CALM      30.00F
*CHATSWORTH      N/A     57  50  77 CALM      30.00S
CHINO          CLOUDY    58  51  78 W9        30.00F
MARCH AFB      CLOUDY    55  53  92 CALM      29.99F
*NORTHRIDGE      N/A     57  48  72 NE1         N/A
ONTARIO        MOCLDY    57  50  77 W8        29.99F
*PASADENA        N/A     57  52  82 E2          N/A
RIVERSIDE      CLOUDY    57  51  80 W6        30.00F
SAN BERNARDINO NOT AVBL
*WHITEMAN AP   NOT AVBL
*WOODLAND HILL   N/A     55  48  76 SE1         N/A

$$

CAZ054-055-250800-
LA AND SAN BERNARDINO COUNTY MOUNTAINS


CITY           SKY/WX    TMP DP  RH WIND       PRES   REMARKS
*BIG BEAR AIRP SUNNY     36  32  87 SW7       30.01S WCI  30
MT WILSON NWS    N/A     37  39 100 MISG        N/A
SANDBERG       FOG       44  40  85 W13       30.01S VSB 1/4
*WARM SPRINGS    N/A     45  45 100 CALM        N/A

$$

CAZ028-029-059-060-099-250800-
ANTELOPE VALLEY AND SURROUNDING AREAS


CITY           SKY/WX    TMP DP  RH WIND       PRES   REMARKS
LANCASTER      CLEAR     54  40  59 W26       29.94F
PALMDALE       CLEAR     53  44  71 SW18      29.95S

CITY           SKY/WX    TMP DP  RH WIND       PRES   REMARKS
29 PALMS       PTCLDY    58  43  57 SW7       29.93S
BARSTOW/DAGGET CLEAR     61  39  44 SW28G40   29.84F
BISHOP         CLOUDY    54  23  30 N13       29.85F
CHINA LAKE     PTCLDY    64  27  24 W15G25    29.78R
MOJAVE         FAIR      57  27  30 W40G51    29.86F
NEEDLES        CLOUDY    71  39  31 SW8       29.80S
VICTORVILLE    CLEAR     55  39  54 SW16G23   29.92S

$$

CAZ039-040-250800-
VENTURA AND SANTA BARBARA COUNTY COAST


CITY           SKY/WX    TMP DP  RH WIND       PRES   REMARKS
CAMARILLO      PTCLDY    57  49  74 CALM      29.99F
OXNARD AIRPORT PTCLDY    56  50  80 NE6       29.99F
*POINT MUGU      N/A     57  50  77 SE3       30.00F
SBA APT/GOLETA PTCLDY    55  44  66 CALM      29.99S
*SANTA BARBARA   N/A     57  46  65 CALM      30.07S
*VENTURA         N/A     56  49  78 CALM      30.05R

$$

CAZ044-045-250800-
VENTURA COUNTY VALLEYS


CITY           SKY/WX    TMP DP  RH WIND       PRES   REMARKS
*SIMI VALLEY     N/A     53  49  84 CALM      29.97S
*OJAI            N/A     46  43  88 CALM      29.96S
*FILLMORE        N/A     57  51  81 CALM      29.90R

$$

CAZ053-250800-
VENTURA COUNTY MOUNTAINS


CITY           SKY/WX    TMP DP  RH WIND       PRES   REMARKS
*LOCKWOOD VLY    N/A     41  32  70 MISG        N/A
*ROSE VALLEY     N/A     43  45 100 MISG        N/A

$$

CAZ034-035-036-250800-
CENTRAL COAST AND SANTA YNEZ VALLEY


CITY           SKY/WX    TMP DP  RH WIND       PRES   REMARKS
SAN LUIS OBISP PTCLDY    53  47  79 N3        30.04S
SANTA MARIA    CLOUDY    54  49  83 W7        30.05S

CITY           SKY/WX    TMP DP  RH WIND       PRES   REMARKS
*CAL POLY SLO    N/A     54  50  87 S2G10       N/A
*LOMPOC        CLOUDY    54  46  76 NW6       30.06F
*PISMO BEACH     N/A     53  47  81 NE3       30.04F
*SANTA YNEZ    CLOUDY    52  45  76 CALM      30.05S

$$

CAZ037-038-051-250800-
SAN LUIS OBISPO COUNTY INTERIOR AND CUYAMA VALLEY


CITY           SKY/WX    TMP DP  RH WIND       PRES   REMARKS
*CUYAMA          N/A     49  40  71 W5        29.98S
PASO ROBLES    MOCLDY    52  38  58 NW16      30.02R

$$

CAZ032-033-061-250800-
SOUTHERN DESERTS


CITY           SKY/WX    TMP DP  RH WIND       PRES   REMARKS
BLYTHE         CLEAR     65  50  58 S10       29.83S
IMPERIAL       CLEAR     66  47  50 NW22G30   29.86S
PALM SPRINGS   PTCLDY    69  43  38 NW16G23   29.85F
THERMAL        PTCLDY    66  47  50 NW17G25   29.84S

$$

ELSEWHERE ACROSS THE WESTERN UNITED STATES AND MEXICO


CITY           SKY/WX    TMP DP  RH WIND       PRES   REMARKS
DENVER, CO     PTCLDY    42  32  67 S8        29.71S
GRAND CANYON,  CLOUDY    45  35  68 SW10      29.97S
HONOLULU, HI   MOCLDY    75  69  81 S8        29.99R
KAHULUI, MAUI  PTCLDY    73  65  75 S3        29.98R
LAKE TAHOE, CA LGT RAIN  38  31  76 SE8       29.87F WCI  32
LAS VEGAS, NV  PTCLDY    62  38  40 S17G28    29.73F
MAMMOTH LAKES, FAIR      41  21  45 W15G25    29.95F WCI  33
MEXICO CITY, M PTCLDY    66  52  59 NE9       30.31R
PHOENIX, AZ    PTCLDY    69  41  36 CALM      29.86S
PORTLAND, OR   DRIZZLE   50  45  83 SW3       29.92S
RENO, NV       CLOUDY    47  28  47 E3        29.83F
SALT LAKE CITY MOCLDY    47  43  86 N6        29.81F
SAN DIEGO, CA  CLOUDY    62  50  64 W6        30.04S
SAN FRANCISCO, LGT RAIN  57  53  86 SW15      29.96F
SAN JOSE, CA   CLOUDY    57  45  64 SE8       29.99F
SEATTLE, WA    CLOUDY    46  40  79 S5        29.88S
TIJUANA, MEX   CLOUDY    57  48  72 SW5       30.05R

$$

STATION/POSITION TIME  TEMP    WIND        PRES    VSBY  WAVE
                       AIR SEA DIR/SP/G                  HT/PER
                 (UTC) (F)     (DEG/KT/KT) (MB)    (MI)  (FT/S)
POINT ARGUELLO B NOT AVBL
WEST SANTA BARBA 0600   56 56  330/ 19/ 23 1016.4F         6/ 8
POINT CONCEPTION NOT AVBL
EAST SANTA BARBA NOT AVBL
SANTA MONICA BAY 0700   59 62   CALM  /  2 1016.1F         4/ 6



USA.gov is the U.S. government's official web portal to all federal, state and local government web resources and services.